Miscellaneous Local Product
Issued by NWS Hastings, NE

Home | Current Version | Previous Version | Text Only | Print | Product List | Glossary Off
Versions: 1 2 3 4 5 6 7 8 9 10 11 12 13 14 15 16 17 18 19 20 21 22 23 24 25 26 27 28 29 30 31 32 33 34 35 36 37 38 39 40 41 42 43 44 45 46 47 48 49 50

961
AXUS43 KGID 262302
MISGRI

GID CWA HOURLY WEATHER ROUNDUP
NATIONAL WEATHER SERVICE HASTINGS NE
600 PM CDT WED JUL 26 2017

NOTE: "FAIR" INDICATES FEW OR NO CLOUDS BELOW 12,000 FEET WITH NO
SIGNIFICANT WEATHER AND/OR OBSTRUCTIONS TO VISIBILITY.

...SOUTH CENTRAL NEBRASKA...

CITY           SKY/WX    TMP DP  RH WIND       PRES   REMARKS
GRAND ISLAND   CLOUDY    78  72  81 NE13      30.03R
HASTINGS       CLOUDY    78  71  79 E12       30.03S
KEARNEY        CLOUDY    79  71  76 NE12      30.04R
ORD            CLOUDY    81  67  62 NE10      30.03S
YORK           CLOUDY    77  73  88 NE10      30.01S
AURORA         CLOUDY    78  73  87 NE8       30.02S
LEXINGTON      CLOUDY    78  68  69 NE9       30.06R
HOLDREGE       CLOUDY    76  70  81 NE10      30.04S
HEBRON         CLOUDY    79  73  80 N15G21    29.99R

...NEBRASKA PANHANDLE...

CITY           SKY/WX    TMP DP  RH WIND       PRES   REMARKS
CHADRON        MOSUNNY   83  50  31 E9        30.14F
ALLIANCE       CLOUDY    82  60  47 NE14      30.17S
SCOTTSBLUFF    CLOUDY    84  58  40 NE14      30.17F
SIDNEY         MOSUNNY   83  60  45 NE16      30.18F

...WESTERN AND NORTH CENTRAL NEBRASKA...

CITY           SKY/WX    TMP DP  RH WIND       PRES   REMARKS
VALENTINE      MOSUNNY   87  56  34 NE16      30.10S
AINSWORTH      PTSUNNY   81  68  65 E10       30.10S
ONEILL         CLOUDY    81  68  63 NE14G20   30.07R
BROKEN BOW     CLOUDY    81  66  60 NE12      30.07R
IMPERIAL       CLOUDY    79  64  60 NE14      30.11R
NORTH PLATTE   CLOUDY    79  68  69 E3        30.09S
MCCOOK         CLOUDY    80  68  66 NE15      30.05F

...EASTERN NEBRASKA...

CITY           SKY/WX    TMP DP  RH WIND       PRES   REMARKS
NORFOLK        CLOUDY    81  69  67 NE12      30.02R
SO SIOUX CITY  PTSUNNY   84  71  65 E6        29.99R
TEKAMAH        CLOUDY    80  73  79 CALM      29.98S
COLUMBUS       CLOUDY    80  73  79 NE8       30.01S
ALBION         DRIZZLE   79  73  82 NE7       30.03S
OMAHA EPPLEY   CLOUDY    76  72  87 N3        29.99R
OFFUTT AFB     LGT RAIN  76  74  93 NE5       29.98S
MILLARD        HVY RAIN  76  75  95 N3        29.99S
LINCOLN        RAIN      74  73  97 NE8       29.99S FOG
NEBRASKA CITY  TSTM      76  76 100 CALM      29.99R
BEATRICE       LGT RAIN  81  74  81 N8        29.98R
FALLS CITY     CLOUDY    80  73  79 SW9       29.98R

...NORTHERN KANSAS...

CITY           SKY/WX    TMP DP  RH WIND       PRES   REMARKS
GOODLAND       MOSUNNY   83  66  56 NE16G24   30.08F
HILL CITY      MOSUNNY   90  71  53 N17       29.98R HX  96
NORTON         MOCLDY    79  66  65 N12G20    30.01R
PHILLIPSBURG   PTSUNNY   84  72  65 N15G21    29.98R
SMITH CENTER   SUNNY     82  72  69 NE9       29.98R
HAYS           MOSUNNY   95  69  42 N12       29.90S HX 100
RUSSELL        CLOUDY    95  68  41 E12       29.89S HX  99
CONCORDIA      PTSUNNY   82  74  76 E6        29.97R
SALINA         CLOUDY    88  75  65 SE10      29.91S HX  97
TOPEKA         CLOUDY    77  77 100 SE7       29.93F



USA.gov is the U.S. government's official web portal to all federal, state and local government web resources and services.